Weather History for KEST - July, 2013

Change the Weather History Date:

Tuesday, July 23, 2013

  Actual Average Record
Temperature  
Mean Temperature 65 °F 72 °F  
Max Temperature 74 °F 82 °F 98 °F (1965)
Min Temperature 56 °F 61 °F 47 °F (1985)
Degree Days  
Heating Degree Days 0 0  
Month to date heating degree days 0 0  
Since 1 June heating degree days 54 41  
Since 1 July heating degree days 0 0  
Cooling Degree Days 0 7  
Month to date cooling degree days 219 161  
Year to date cooling degree days 402 334  
Since 1 June cooling degree days 369 298  
Growing Degree Days 15 (Base 50)    
Moisture  
Dew Point 55 °F    
Average Humidity 70    
Maximum Humidity 87    
Minimum Humidity 53    
Precipitation  
Precipitation T in 0.13 in 0.91 in (1978)
Month to date precipitation T 3.05  
Sea Level Pressure  
Sea Level Pressure 29.97 in    
Wind  
Wind Speed 6 mph (North)    
Max Wind Speed 16 mph    
Max Gust Speed 22 mph    
Visibility 10 miles    
Events Rain    
T = Trace of Precipitation, MM = Missing Value Source: NWS Daily Summary

Daily Weather History Graph

Daily Weather History Graph

Search for Another Location

Airport or City:

Trip Planner

Search our weather history database for the weather conditions in past years. The results will help you decide how hot, cold, wet, or windy it might be!

Date:

Astronomy

Jul. 23, 2013 Rise Set
Actual Time 5:59 AM CDT 8:50 PM CDT
Civil Twilight 5:26 AM CDT 9:24 PM CDT
Nautical Twilight 4:43 AM CDT 10:06 PM CDT
Astronomical Twilight 3:54 AM CDT 10:55 PM CDT
Moon 9:14 PM CDT (7/23) 7:13 AM CDT (7/23)
Length of Visible Light 15h 57m
Length of Day
14h 50m
Full, 99% of the Moon is Illuminated
Jul 23
Full
Jul 29
Last Quarter
Aug 6
New
Aug 14
First Quarter
Aug 20
Full

Hourly Weather History & Observations

Time (CDT) Temp. Dew Point Humidity Pressure Visibility Wind Dir Wind Speed Gust Speed Precip Events Conditions
12:52 AM 63.0 °F 55.9 °F 78% 29.87 in 10.0 mi North 5.8 mph - N/A   Clear
1:52 AM 60.1 °F 55.0 °F 83% 29.87 in 10.0 mi NNW 8.1 mph - N/A   Clear
2:52 AM 57.9 °F 54.0 °F 87% 29.89 in 10.0 mi NW 6.9 mph - N/A   Clear
3:52 AM 57.9 °F 54.0 °F 87% 29.92 in 10.0 mi NW 5.8 mph - N/A   Clear
4:52 AM 59.0 °F 54.0 °F 83% 29.92 in 10.0 mi NNW 8.1 mph - N/A   Clear
5:52 AM 59.0 °F 54.0 °F 83% 29.93 in 10.0 mi North 5.8 mph - N/A   Clear
6:52 AM 59.0 °F 55.0 °F 87% 29.97 in 10.0 mi NW 4.6 mph - N/A   Clear
7:52 AM 64.0 °F 55.9 °F 75% 29.96 in 10.0 mi North 9.2 mph - N/A   Clear
8:52 AM 66.9 °F 55.0 °F 66% 29.97 in 10.0 mi NNE 10.4 mph - N/A   Clear
9:52 AM 68.0 °F 55.0 °F 63% 29.98 in 10.0 mi NE 5.8 mph - N/A   Clear
10:52 AM 69.1 °F 54.0 °F 58% 30.01 in 10.0 mi NNE 6.9 mph - N/A   Partly Cloudy
11:52 AM 68.0 °F 53.1 °F 59% 30.00 in 10.0 mi NNE 6.9 mph - N/A   Clear
12:52 PM 68.0 °F 57.0 °F 68% 30.02 in 8.0 mi North 4.6 mph - 0.00 in Rain Light Rain
1:52 PM 71.1 °F 55.9 °F 59% 30.00 in 10.0 mi North 9.2 mph - 0.00 in   Partly Cloudy
2:52 PM 73.0 °F 57.0 °F 57% 29.99 in 10.0 mi NNE 12.7 mph 17.3 mph N/A   Partly Cloudy
3:52 PM 72.0 °F 54.0 °F 53% 29.99 in 10.0 mi NNE 12.7 mph 21.9 mph N/A   Clear
4:52 PM 72.0 °F 55.0 °F 55% 29.99 in 10.0 mi NNE 11.5 mph - N/A   Clear
5:52 PM 72.0 °F 55.9 °F 57% 30.00 in 10.0 mi NE 3.5 mph - N/A   Scattered Clouds
6:52 PM 72.0 °F 55.0 °F 55% 30.00 in 10.0 mi North 5.8 mph - N/A   Clear
7:52 PM 71.1 °F 55.9 °F 59% 30.00 in 10.0 mi NNW 3.5 mph - N/A   Clear
8:52 PM 66.0 °F 57.0 °F 73% 29.99 in 10.0 mi Calm Calm - N/A   Clear
9:52 PM 62.1 °F 55.9 °F 80% 30.01 in 10.0 mi Calm Calm - N/A   Clear
10:52 PM 60.1 °F 55.0 °F 83% 30.02 in 10.0 mi Calm Calm - N/A   Clear
11:52 PM 57.9 °F 53.1 °F 84% 30.03 in 10.0 mi West 3.5 mph - N/A   Clear